When you browse on this site, cookies collect data to enhance your experience and personalize the content and advertising you see.
Visit our Privacy Policy to learn more. By continuing to use the site, you agree to this use of cookies and data.
  • In Hungary
  • List of Countries
  • For 7 days
  • Water Temperature
  • Weather Map
  • News
  • Weather Widgets
  • user-avatar
    Login

    Hourly Weather Sokolowice

    Today, 8 December, Sunday

    Time Temperature Precipitation Wind Pressure Humidity
    00:00 +5°C° 0 mm 6 mps 745 mmHg 81%
    01:00 +6°C° 0 mm 5 mps 745 mmHg 80%
    02:00 +5°C° 0 mm 5 mps 745 mmHg 81%
    03:00 +5°C° 0 mm 4 mps 745 mmHg 82%
    04:00 +4°C° 0 mm 4 mps 744 mmHg 84%
    05:00 +4°C° 0 mm 4 mps 744 mmHg 83%
    06:00 +4°C° 0 mm 4 mps 744 mmHg 83%
    07:00 +3°C° 0 mm 5 mps 744 mmHg 83%
    08:00 +3°C° 0 mm 5 mps 744 mmHg 80%
    09:00 +4°C° 0 mm 6 mps 744 mmHg 77%
    10:00 +4°C° 0 mm 6 mps 743 mmHg 74%
    11:00 +5°C° 0 mm 7 mps 742 mmHg 72%
    12:00 +5°C° 0 mm 7 mps 742 mmHg 69%
    13:00 +6°C° 0 mm 7 mps 741 mmHg 67%
    14:00 +6°C° 0 mm 7 mps 740 mmHg 68%
    15:00 +5°C° 0 mm 6 mps 740 mmHg 70%
    16:00 +5°C° 0 mm 6 mps 739 mmHg 71%
    17:00 +5°C° 0 mm 6 mps 739 mmHg 72%
    18:00 +7°C° 0 mm 6 mps 739 mmHg 72%
    19:00 +6°C° 0 mm 7 mps 739 mmHg 72%
    20:00 +6°C° 0.4 mm 7 mps 739 mmHg 73%
    21:00 +6°C° 0.4 mm 7 mps 738 mmHg 74%
    22:00 +8°C° 0.4 mm 7 mps 738 mmHg 75%
    23:00 +6°C° 0 mm 7 mps 738 mmHg 75%

    Tomorrow, 9 December, Monday

    Time Temperature Precipitation Wind Pressure Humidity
    00:00 +6°C° 0 mm 7 mps 738 mmHg 76%
    01:00 +6°C° 0 mm 7 mps 737 mmHg 77%
    02:00 +7°C° 0.3 mm 6 mps 737 mmHg 80%
    03:00 +7°C° 0.3 mm 5 mps 737 mmHg 83%
    04:00 +7°C° 0.3 mm 5 mps 737 mmHg 86%
    05:00 +7°C° 0.3 mm 4 mps 737 mmHg 87%
    06:00 +6°C° 0.3 mm 4 mps 737 mmHg 88%
    07:00 +7°C° 0.3 mm 3 mps 737 mmHg 88%
    08:00 +6°C° 0 mm 4 mps 737 mmHg 82%
    09:00 +6°C° 0 mm 5 mps 738 mmHg 75%
    10:00 +7°C° 0 mm 5 mps 738 mmHg 68%
    11:00 +7°C° 0 mm 6 mps 738 mmHg 65%
    12:00 +7°C° 0 mm 6 mps 737 mmHg 62%
    13:00 +8°C° 0 mm 6 mps 737 mmHg 59%
    14:00 +7°C° 0 mm 6 mps 737 mmHg 62%
    15:00 +7°C° 0 mm 6 mps 737 mmHg 64%
    16:00 +6°C° 0 mm 5 mps 736 mmHg 66%
    17:00 +5°C° 0 mm 6 mps 737 mmHg 69%
    18:00 +4°C° 0 mm 6 mps 737 mmHg 72%
    19:00 +4°C° 0 mm 7 mps 737 mmHg 75%
    20:00 +4°C° 0 mm 7 mps 737 mmHg 76%
    21:00 +4°C° 0 mm 6 mps 738 mmHg 77%
    22:00 +4°C° 0 mm 6 mps 738 mmHg 79%
    23:00 +4°C° 0 mm 6 mps 739 mmHg 79%

    Day after tomorrow, 10 December, Tuesday

    Time Temperature Precipitation Wind Pressure Humidity
    00:00 +4°C° 0 mm 6 mps 739 mmHg 79%
    01:00 +4°C° 0 mm 6 mps 740 mmHg 79%
    02:00 +3°C° 0 mm 6 mps 741 mmHg 79%
    03:00 +3°C° 0 mm 6 mps 741 mmHg 78%
    04:00 +2°C° 0 mm 6 mps 742 mmHg 78%
    05:00 +2°C° 0 mm 7 mps 743 mmHg 79%
    06:00 0°C° 0 mm 7 mps 744 mmHg 81%
    07:00 0°C° 0 mm 8 mps 745 mmHg 82%
    08:00 0°C° 0.2 mm 8 mps 746 mmHg 84%
    09:00 0°C° 0.2 mm 7 mps 746 mmHg 87%
    10:00 +2°C° 0.2 mm 7 mps 747 mmHg 89%
    11:00 +2°C° 0.3 mm 7 mps 748 mmHg 86%
    12:00 +3°C° 0.3 mm 7 mps 748 mmHg 83%
    13:00 +3°C° 0.3 mm 7 mps 749 mmHg 80%
    14:00 +3°C° 0 mm 7 mps 749 mmHg 81%
    15:00 +2°C° 0 mm 6 mps 750 mmHg 83%
    16:00 +2°C° 0 mm 6 mps 751 mmHg 84%
    17:00 +2°C° 0 mm 6 mps 751 mmHg 82%
    18:00 +2°C° 0 mm 5 mps 752 mmHg 80%
    19:00 +1°C° 0 mm 4 mps 752 mmHg 79%
    20:00 +1°C° 0 mm 4 mps 752 mmHg 79%
    21:00 +2°C° 0 mm 3 mps 753 mmHg 79%
    22:00 +2°C° 0 mm 3 mps 753 mmHg 80%
    23:00 +2°C° 0 mm 3 mps 753 mmHg 79%

    11 December, Wednesday

    Time Temperature Precipitation Wind Pressure Humidity
    00:00 +3°C° 0 mm 2 mps 752 mmHg 78%
    01:00 +2°C° 0 mm 2 mps 752 mmHg 77%
    02:00 +2°C° 0 mm 2 mps 752 mmHg 79%
    03:00 +1°C° 0 mm 2 mps 752 mmHg 80%
    04:00 +1°C° 0 mm 2 mps 751 mmHg 81%
    05:00 -1°C° 0 mm 3 mps 751 mmHg 82%
    06:00 -1°C° 0 mm 3 mps 751 mmHg 83%
    07:00 -2°C° 0 mm 4 mps 750 mmHg 84%
    08:00 -1°C° 0 mm 4 mps 750 mmHg 81%
    09:00 0°C° 0 mm 5 mps 750 mmHg 77%
    10:00 0°C° 0 mm 5 mps 750 mmHg 73%
    11:00 +1°C° 0 mm 5 mps 749 mmHg 70%
    12:00 +2°C° 0 mm 5 mps 749 mmHg 66%
    13:00 +3°C° 0 mm 4 mps 748 mmHg 63%
    14:00 +3°C° 0 mm 4 mps 748 mmHg 66%
    15:00 +2°C° 0 mm 3 mps 747 mmHg 69%
    16:00 +1°C° 0 mm 3 mps 747 mmHg 72%
    17:00 +1°C° 0 mm 3 mps 747 mmHg 74%
    18:00 0°C° 0 mm 3 mps 746 mmHg 75%
    19:00 0°C° 0 mm 3 mps 746 mmHg 77%
    20:00 0°C° 0 mm 3 mps 746 mmHg 77%
    21:00 0°C° 0 mm 3 mps 746 mmHg 77%
    22:00 -1°C° 0 mm 3 mps 745 mmHg 78%
    23:00 -1°C° 0 mm 3 mps 745 mmHg 78%

    12 December, Thursday

    Time Temperature Precipitation Wind Pressure Humidity
    00:00 -1°C° 0 mm 3 mps 745 mmHg 79%
    01:00 -1°C° 0 mm 3 mps 744 mmHg 80%
    02:00 -1°C° 0 mm 3 mps 744 mmHg 81%
    03:00 -1°C° 0 mm 3 mps 743 mmHg 82%
    04:00 -1°C° 0 mm 3 mps 743 mmHg 83%
    05:00 -1°C° 0 mm 3 mps 743 mmHg 84%
    06:00 -1°C° 0 mm 3 mps 742 mmHg 84%
    07:00 -1°C° 0 mm 2 mps 742 mmHg 84%
    08:00 0°C° 0 mm 3 mps 742 mmHg 80%
    09:00 0°C° 0 mm 3 mps 742 mmHg 76%
    10:00 0°C° 0 mm 4 mps 742 mmHg 72%
    11:00 +1°C° 0 mm 3 mps 742 mmHg 73%
    12:00 +1°C° 0 mm 3 mps 742 mmHg 75%
    13:00 +2°C° 0 mm 3 mps 742 mmHg 76%
    14:00 +1°C° 0 mm 3 mps 742 mmHg 83%
    15:00 +2°C° 0 mm 2 mps 742 mmHg 89%
    16:00 +1°C° 0 mm 2 mps 742 mmHg 96%
    17:00 +1°C° 0 mm 2 mps 742 mmHg 96%
    18:00 +1°C° 0 mm 2 mps 742 mmHg 96%
    19:00 +2°C° 0 mm 2 mps 742 mmHg 96%
    20:00 +1°C° 0 mm 2 mps 742 mmHg 94%
    21:00 0°C° 0 mm 3 mps 742 mmHg 92%
    22:00 0°C° 0 mm 3 mps 742 mmHg 90%
    23:00 0°C° 0 mm 3 mps 742 mmHg 90%

    13 December, Friday

    Time Temperature Precipitation Wind Pressure Humidity
    00:00 0°C° 0 mm 3 mps 741 mmHg 90%
    01:00 -1°C° 0 mm 2 mps 741 mmHg 90%
    02:00 -1°C° 0 mm 3 mps 740 mmHg 90%
    03:00 -1°C° 0 mm 3 mps 740 mmHg 90%
    04:00 -2°C° 0 mm 4 mps 739 mmHg 90%
    05:00 -2°C° 0 mm 4 mps 738 mmHg 88%
    06:00 -2°C° 0 mm 5 mps 737 mmHg 86%
    07:00 -3°C° 0 mm 6 mps 736 mmHg 84%
    08:00 -2°C° 0 mm 7 mps 735 mmHg 75%
    09:00 -2°C° 0 mm 8 mps 734 mmHg 66%
    10:00 -1°C° 0 mm 9 mps 733 mmHg 57%
    11:00 0°C° 0.1 mm 9 mps 732 mmHg 58%
    12:00 0°C° 0.1 mm 9 mps 731 mmHg 58%
    13:00 +1°C° 0.1 mm 9 mps 730 mmHg 59%
    14:00 0°C° 0.1 mm 8 mps 730 mmHg 63%
    15:00 0°C° 0.1 mm 8 mps 729 mmHg 68%
    16:00 0°C° 0.1 mm 7 mps 729 mmHg 72%
    17:00 +1°C° 0.1 mm 6 mps 729 mmHg 75%
    18:00 +1°C° 0.1 mm 6 mps 729 mmHg 79%
    19:00 +1°C° 0.1 mm 5 mps 729 mmHg 82%
    20:00 +1°C° 0 mm 5 mps 730 mmHg 82%
    21:00 +1°C° 0 mm 5 mps 730 mmHg 82%
    22:00 0°C° 0 mm 4 mps 730 mmHg 82%
    23:00 0°C° 0 mm 4 mps 730 mmHg 82%
    Show more